This demonstration page uses our WeatherBlox Daily Observations layout. Learn more.

41.86663, -103.66717

Hourly Observations for May 12, 2019

Temp ( °F °C ) Dew Point ( °F °C ) Humidity (%) Winds ( mph kmh ) Pressure ( in mb ) Visibility ( mi km ) Precip ( " mm )
12:53 am 00:53 Clear 35 1.7 30 -1.1 82 82 WNW 7 11 29.91 1013 10 16.09344 0 0
1:53 am 01:53 Clear 37 2.8 31 -0.6 79 79 NW 8 13 29.91 1013 10 16.09344 0 0
2:53 am 02:53 Clear 34 1.1 30 -1.1 85 85 NNW 7 11 29.91 1013 10 16.09344 0 0
3:53 am 03:53 Clear 33 0.6 30 -1.1 89 89 NW 8 13 29.91 1013 10 16.09344 0 0
4:53 am 04:53 Clear 32 0 29 -1.7 88 88 NNW 8 13 29.91 1013 10 16.09344 0 0
5:53 am 05:53 Sunny 32 0 30 -1.1 92 92 NW 8 13 29.91 1013 10 16.09344 0 0
6:53 am 06:53 Sunny 37 2.8 33 0.6 86 86 NNW 6 9 29.91 1013 10 16.09344 0 0
7:53 am 07:53 Sunny 43 6.1 36 2.2 76 76 WNW 7 11 29.91 1013 10 16.09344 0 0
8:53 am 08:53 Sunny 50 10 37 2.8 61 61 WNW 9 15 29.91 1013 10 16.09344 0 0
9:53 am 09:53 Sunny 56 13.3 37 2.8 49 49 W 8 13 29.88 1012 10 16.09344 0 0
10:53 am 10:53 Sunny 60 15.6 37 2.8 42 42 VRB 5 7 29.88 1012 10 16.09344 0 0
11:53 am 11:53 Sunny 63 17.2 38 3.3 40 40 VRB 6 9 29.85 1011 10 16.09344 0 0
12:53 pm 12:53 Sunny 68 20 38 3.3 33 33 WNW 12 19 29.83 1010 10 16.09344 0 0
1:53 pm 13:53 Sunny 72 22.2 35 1.7 26 26 N 18 30 29.77 1008 10 16.09344 0 0
2:53 pm 14:53 Sunny 73 22.8 36 2.2 26 26 NNW 13 20 29.77 1008 10 16.09344 0 0
3:53 pm 15:53 Sunny 74 23.3 36 2.2 25 25 NNW 13 20 29.77 1008 10 16.09344 0 0
4:53 pm 16:53 Sunny 74 23.3 37 2.8 26 26 N 12 19 29.77 1008 10 16.09344 0 0
5:53 pm 17:53 Sunny 71 21.7 34 1.1 26 26 E 13 20 29.77 1008 10 16.09344 0 0
6:53 pm 18:53 Sunny 67 19.4 32 0 27 27 E 14 22 29.77 1008 10 16.09344 0 0
7:53 pm 19:53 Sunny 59 15 32 0 36 36 ESE 9 15 29.8 1009 10 16.09344 0 0
8:53 pm 20:53 Clear 52 11.1 33 0.6 49 49 E 7 11 29.83 1010 10 16.09344 0 0
9:53 pm 21:53 Clear 51 10.6 32 0 48 48 SE 5 7 29.83 1010 10 16.09344 0 0
10:53 pm 22:53 Clear 47 8.3 33 0.6 59 59 E 5 7 29.85 1011 10 16.09344 0 0
11:53 pm 23:53 Clear 44 6.7 33 0.6 65 65 ENE 8 13 29.83 1010 10 16.09344 0 0

Powered by AerisWeather